Location: O'Brien
(30.0517°N, 82.9900°W)
Time: 14:08:42
(UTC-04:00)

Tiangong 2 - Visible Passes

Search period start: 22 March 2019 00:00
Search period end: 01 April 2019 00:00
Orbit: 379 x 390 km, 42.8° (Epoch: 22 March)

Date Brightness Start Highest point End Pass type
(mag) Time Alt. Az. Time Alt. Az. Time Alt. Az.
22 Mar 4.5 05:19:40 11° NE 05:19:40 11° NE 05:19:54 10° NE visible
22 Mar 1.7 06:52:29 10° NW 06:55:36 55° NNE 06:58:43 10° ESE visible
23 Mar 2.7 05:55:33 27° N 05:56:02 29° NNE 05:58:52 10° E visible
24 Mar 1.0 06:31:35 23° WNW 06:33:21 66° SW 06:36:30 10° SE visible
25 Mar 3.4 05:35:33 23° ESE 05:35:33 23° ESE 05:36:58 10° ESE visible
26 Mar 2.6 06:11:59 23° S 06:11:59 23° S 06:13:45 10° SSE visible
27 Mar 3.8 21:39:17 10° SW 21:39:49 14° SW 21:39:49 14° SW visible
28 Mar 1.8 20:40:05 10° SSW 20:42:56 33° SE 20:44:06 24° E visible
29 Mar 1.9 21:17:03 10° WSW 21:20:04 46° NNW 21:20:30 42° N visible
30 Mar 1.0 20:17:24 10° SW 20:20:31 79° SE 20:23:39 10° ENE visible
30 Mar 4.1 21:55:27 10° WNW 21:56:41 15° NW 21:56:41 15° NW visible
31 Mar 3.1 20:55:07 10° W 20:57:48 25° NNW 21:00:25 10° NNE visible
